This demonstration page uses our WeatherBlox Daily Observations layout. Learn more.

Left ArrowRight Arrow

53.62937, 11.41316

Hourly Observations for October 27, 2015

Temp ( °F °C ) Dew Point ( °F °C ) Humidity (%) Winds ( mph kmh ) Pressure ( in mb ) Visibility ( mi km ) Precip ( " mm )
5:20 am 05:20 Mostly Clear 37 3 37 3 100 100 E 7 11 30.18 1022 7 11 N/A
5:50 am 05:50 Mostly Clear 37 3 36 2 93 93 E 9 15 30.18 1022 7 11 N/A
6:20 am 06:20 Mostly Clear 37 3 36 2 93 93 ESE 8 13 30.15 1021 7 11 N/A
6:50 am 06:50 Mostly Clear 37 3 36 2 93 93 ESE 8 13 30.15 1021 7 11 N/A
7:20 am 07:20 Mostly Sunny 36 2 36 2 100 100 E 10 17 30.15 1021 7 11 N/A
7:50 am 07:50 Mostly Sunny 37 3 36 2 93 93 E 8 13 30.15 1021 7 11 N/A
8:20 am 08:20 Mostly Sunny 39 4 37 3 93 93 E 8 13 30.15 1021 7 11 N/A
8:50 am 08:50 Mostly Sunny 41 5 37 3 87 87 E 9 15 30.15 1021 7 11 N/A
9:20 am 09:20 Mostly Sunny 43 6 39 4 87 87 E 8 13 30.15 1021 7 11 N/A
9:50 am 09:50 Mostly Sunny 45 7 41 5 87 87 E 7 11 30.15 1021 7 11 N/A
10:20 am 10:20 Mostly Sunny 48 9 43 6 82 82 E 6 9 30.15 1021 7 11 N/A
10:50 am 10:50 Mostly Sunny 50 10 43 6 76 76 E 6 9 30.15 1021 7 11 N/A
11:20 am 11:20 Mostly Sunny 52 11 45 7 77 77 E 7 11 30.15 1021 7 11 N/A
11:50 am 11:50 Mostly Sunny 52 11 45 7 77 77 E 9 15 30.15 1021 7 11 N/A
12:20 pm 12:20 Mostly Sunny 54 12 45 7 72 72 E 9 15 30.15 1021 7 11 N/A
12:50 pm 12:50 Mostly Sunny 54 12 45 7 72 72 E 9 15 30.12 1020 7 11 N/A
1:20 pm 13:20 Mostly Sunny 57 14 45 7 63 63 E 12 19 30.12 1020 7 11 N/A
1:50 pm 13:50 Mostly Sunny 55 13 46 8 72 72 ESE 10 17 30.12 1020 7 11 N/A
2:20 pm 14:20 Mostly Sunny 55 13 46 8 72 72 ESE 9 15 30.12 1020 7 11 N/A
2:50 pm 14:50 Mostly Sunny 55 13 46 8 72 72 ESE 8 13 30.12 1020 7 11 N/A
3:20 pm 15:20 Mostly Sunny 55 13 45 7 67 67 ESE 10 17 30.09 1019 7 11 N/A
3:50 pm 15:50 Mostly Sunny 54 12 45 7 72 72 ESE 9 15 30.09 1019 7 11 N/A
4:20 pm 16:20 Mostly Sunny 54 12 45 7 72 72 ESE 8 13 30.09 1019 7 11 N/A
4:50 pm 16:50 Mostly Sunny 52 11 45 7 77 77 E 9 15 30.09 1019 7 11 N/A
5:20 pm 17:20 Mostly Clear 50 10 45 7 82 82 E 6 9 30.09 1019 7 11 N/A
5:50 pm 17:50 Mostly Clear 48 9 45 7 87 87 E 6 9 30.09 1019 5 8 N/A

Powered by AerisWeather